Flight Track Log - Related Links

Times and Time Zones

All times are in EDT time to prevent confusion due to time zone crossing. See the N997ME flight status page for this flight to view local times or setup timezone preferences in your user account.

Time Position Orientation Groundspeed Altitude Reporting Facility
EDT Latitude Longitude Course Direction KTS MPH feet Rate Location/Type
Tue 10:45:00 PM 32.1671 -116.4158 326° Northwest  Level Estimated
Tue 10:45:13 PM 32.0333 -116.6667 323° Northwest 218 251 16,000  Level Southern California TRACON
Tue 10:46:00 PM 32.2137 -116.4572 323° Northwest  Level Estimated
Tue 10:46:13 PM 32.1000 -116.6667 360° North 225 259 15,900  Level Southern California TRACON
Tue 10:47:00 PM 32.2603 -116.4986 323° Northwest  Level Estimated
Tue 10:47:13 PM 32.1667 -116.6667 360° North 232 267 15,500  Level Southern California TRACON
Tue 10:48:00 PM 32.3069 -116.5400 323° Northwest  Level Estimated
Tue 10:48:13 PM 32.2333 -116.6667 360° North 246 283 14,500  Level Southern California TRACON
Tue 10:49:00 PM 32.3535 -116.5815 323° Northwest  Level Estimated
Tue 10:49:13 PM 32.3000 -116.6833 348° North 257 296 13,400  Level Southern California TRACON
Tue 10:49:28 PM 32.3208 -116.6814 North 259 298 12,900 -1,184 Descending Los Angeles Center
Tue 10:50:00 PM 32.4000 -116.6230 323° Northwest  Level Estimated
Tue 10:50:29 PM 32.3828 -116.6861 356° North 273 314 11,900  Level Los Angeles Center
Tue 10:51:31 PM 32.4792 -116.6919 357° North 284 327 10,400 -919 Descending Los Angeles Center
Tue 10:52:33 PM 32.5583 -116.6928 359° North 286 329 10,000 -341 Descending Los Angeles Center
Tue 10:53:34 PM 32.6194 -116.7292 333° Northwest 257 296 9,700 -439 Descending Los Angeles Center
Tue 10:54:36 PM 32.6819 -116.7664 333° Northwest 249 287 9,100 -780 Descending Los Angeles Center
Tue 10:55:37 PM 32.7442 -116.8072 331° Northwest 253 291 8,100 -537 Descending Los Angeles Center
Tue 10:56:39 PM 32.8031 -116.8475 330° Northwest 247 284 8,000  Descending Los Angeles Center
Tue 10:57:40 PM 32.8569 -116.8839 330° Northwest 230 265 8,100 -202 Climbing Los Angeles Center
Tue 10:58:08 PM 32.8833 -116.9000 333° Northwest 223 257 7,700 -894 Descending Southern California TRACON
Tue 10:59:14 PM 32.9500 -116.9500 328° Northwest 225 259 6,700 -762 Descending Southern California TRACON
Tue 11:00:14 PM 33.0000 -116.9833 331° Northwest 201 231 6,100 -600 Descending Southern California TRACON
Tue 11:01:14 PM 33.0500 -117.0167 331° Northwest 197 227 5,500 -550 Descending Southern California TRACON
Tue 11:02:14 PM 33.1000 -117.0333 344° North 207 238 5,000 -200 Descending Southern California TRACON
Tue 11:03:14 PM 33.1500 -117.0167 16° North 191 220 5,100 -200 Climbing Southern California TRACON
Tue 11:04:14 PM 33.1833 -117.0500 320° Northwest 167 192 4,600 -750 Descending Southern California TRACON
Tue 11:05:14 PM 33.1500 -117.1000 231° Southwest 177 204 3,600 -1,100 Descending Southern California TRACON
Tue 11:06:14 PM 33.1500 -117.1500 270° West 148 170 2,400 -714 Descending Southern California TRACON
Tue 11:07:20 PM 33.1500 -117.2000 270° West 125 144 2,100 -650 Descending Southern California TRACON
Tue 11:08:14 PM 33.1333 -117.2333 239° Southwest 116 133 1,100 -842 Descending Southern California TRACON
Tue 11:09:14 PM 33.1333 -117.2667 270° West 117 135 500 -600 Descending Southern California TRACON

Login

Don't have an account? Register now (free) for customized features, flight alerts, and more!